Theta_e
353 360 359 358 368 359 366 364 352 353 353 349 348 350 354 356 358 362 350 351 351 349 349 349 347 351 352 346 345 344 343 348 349 350 352 353 348 344 349 349 352 352 353 351 353 351 351 350 351
353 354 354 355 365 367 367 358 355 353 350 348 352 353 354 361 351 351 351 352 351 349 349 351 346 347 348 350 348 347 350 349 346 353 350 349 350 352 354 351 353 349 352 354 354 353 352 352 353
351 352 355 357 362 369 369 361 357 352 348 350 354 353 355 358 350 349 350 352 351 349 349 353 348 347 347 348 349 349 352 352 352 353 354 352 349 350 350 353 353 354 352 349 352 351 353 352 352
351 352 353 361 365 364 363 359 355 354 350 349 352 357 353 351 348 348 349 351 351 350 349 351 349 350 351 352 352 353 353 353 354 353 351 352 353 353 353 352 347 350 352 354 350 353 353 352 349
352 354 358 364 363 361 361 358 356 357 355 354 350 355 355 348 348 346 347 349 351 348 349 350 349 351 352 353 353 353 353 352 351 348 348 351 350 349 349 349 351 351 349 348 352 351 353 353 351
353 354 357 357 361 360 358 357 357 356 354 350 350 353 354 349 348 346 345 346 348 347 348 350 350 349 351 353 353 352 353 352 352 352 351 350 347 348 352 352 352 351 351 354 351 348 349 352 351
352 351 355 355 361 361 360 356 358 356 353 350 347 354 354 349 347 346 344 344 346 346 347 347 348 351 353 351 353 352 352 352 352 351 349 351 352 350 351 351 353 352 352 351 351 351 352 349 348
351 350 351 352 355 362 357 357 355 356 356 348 348 352 356 350 347 346 344 343 344 344 345 346 347 349 350 350 353 351 352 352 352 351 351 348 349 343 344 346 344 351 351 352 351 351 351 350 351
348 350 351 351 352 358 357 358 355 352 352 352 352 349 347 348 346 345 344 342 344 344 344 345 345 347 348 349 349 352 353 351 349 349 345 344 347 349 349 344 345 344 352 348 351 351 351 350 350
349 349 351 349 350 355 357 357 356 356 355 355 354 350 348 347 346 345 344 342 342 344 344 345 345 346 346 347 349 350 351 351 350 343 338 338 341 347 346 344 341 338 340 350 350 349 351 347 344
347 350 349 349 353 353 357 357 354 357 357 354 356 355 348 347 346 345 343 342 341 341 343 345 346 347 347 347 348 349 351 346 340 335 336 335 339 342 343 343 341 341 341 343 347 349 348 346 342
349 349 348 352 355 355 355 355 355 355 355 351 351 351 349 347 345 343 341 341 341 341 342 344 345 347 348 349 348 347 344 340 340 338 338 338 342 341 344 341 341 342 342 343 347 349 348 349 345
347 351 352 354 354 353 355 356 355 357 352 350 350 351 350 348 343 341 341 341 342 342 343 344 344 348 348 349 347 346 342 344 339 338 339 339 342 343 341 341 341 341 343 343 349 348 347 347 346
347 352 355 354 354 354 354 356 353 355 353 352 351 351 350 348 346 344 342 342 344 345 344 345 347 349 349 347 349 340 341 344 342 339 342 341 340 339 338 340 342 343 344 344 345 346 346 346 347
351 354 354 354 353 355 353 357 352 354 355 355 353 352 350 349 346 345 344 345 346 347 347 347 348 348 350 349 339 346 345 344 344 345 343 344 342 340 342 342 344 344 345 349 343 345 349 348 347
349 351 351 357 354 356 355 357 355 353 355 357 352 352 352 351 350 349 347 348 350 352 352 352 350 349 349 349 350 346 346 344 346 347 345 346 343 343 345 344 343 344 344 348 347 347 348 347 345
347 348 346 353 356 357 354 355 353 351 352 355 353 352 353 353 352 351 351 352 352 353 354 354 353 351 350 351 350 351 346 348 346 349 348 346 344 346 346 344 343 344 349 348 343 346 347 346 348
345 344 345 346 355 357 356 356 355 353 350 351 352 352 352 352 352 352 352 352 353 353 355 355 354 353 353 353 353 351 350 351 350 350 349 346 347 348 349 347 347 350 349 349 348 347 347 348 347
341 341 341 342 347 355 354 353 353 355 353 350 349 350 351 350 348 349 352 352 353 353 354 355 355 354 354 353 353 352 351 350 352 351 350 349 347 350 351 349 349 351 349 350 348 348 348 346 346
340 341 341 342 344 351 349 351 352 355 355 353 350 349 348 348 349 349 351 352 352 354 354 355 355 355 355 354 354 353 353 352 350 351 351 351 349 349 351 350 349 349 348 349 349 350 344 346 345
341 341 341 341 345 347 351 349 351 352 356 354 353 350 347 347 348 350 350 350 352 352 354 355 356 355 356 354 355 355 354 353 352 352 352 351 352 351 351 352 352 346 346 346 350 350 347 348 350
339 339 338 339 341 347 348 345 351 350 354 356 355 353 350 348 348 347 349 350 350 351 352 354 356 356 356 356 354 354 353 353 352 352 351 352 354 353 353 353 350 346 345 343 338 347 351 350 348
336 336 338 339 341 341 348 342 344 347 344 351 354 354 353 351 348 349 349 349 349 350 352 354 355 356 357 357 356 355 354 352 352 353 353 352 354 355 354 354 354 346 348 349 349 349 348 349 352
333 332 336 339 340 341 337 338 339 339 344 348 348 352 353 353 350 350 349 349 350 350 351 353 355 357 357 357 357 356 355 354 354 354 354 353 352 354 356 355 354 347 347 350 352 352 351 353 352
337 336 340 342 340 340 336 338 339 343 348 349 351 350 350 353 354 352 352 351 351 352 352 353 355 357 357 357 356 356 356 356 356 356 353 353 353 351 354 356 354 350 350 350 349 350 352 353 351
338 338 340 344 342 340 339 338 341 347 347 352 352 351 351 352 352 352 352 351 352 353 353 352 353 356 357 357 356 356 356 355 355 355 355 355 353 353 355 356 355 354 352 352 351 350 349 351 353
338 340 337 339 336 336 337 337 335 347 352 352 354 354 354 354 353 355 353 352 354 353 353 352 353 355 356 356 356 356 355 355 355 356 355 355 356 356 355 356 353 354 354 353 352 351 351 351 353
332 334 338 338 342 342 338 338 337 350 356 354 355 355 355 355 354 353 351 351 350 351 351 352 354 355 357 356 355 355 354 354 353 350 353 355 356 351 346 344 350 353 352 354 353 350 350 349 347
331 332 334 334 335 336 337 336 336 349 356 356 354 354 354 353 354 354 353 350 349 349 350 351 353 355 353 353 349 346 345 347 346 344 349 352 353 349 344 338 337 337 347 351 351 350 350 348 346
336 334 333 334 335 334 336 335 345 353 352 354 357 355 353 353 353 351 351 351 350 351 350 352 353 352 351 351 349 346 344 345 341 342 345 348 349 347 342 341 336 338 341 347 349 347 341 343 342
Wind_Speed
8 9 5 5 4 2 7 6 11 12 12 5 12 2 9 10 7 6 26 22 26 25 21 20 22 21 20 20 20 19 18 15 15 14 13 11 9 8 9 9 10 10 11 11 13 13 14 14 14
6 7 4 2 2 5 6 7 11 6 11 17 9 7 3 7 9 17 22 27 27 26 23 20 21 21 20 20 20 19 17 15 14 13 12 11 11 10 10 9 10 10 10 10 12 12 13 12 13
6 4 4 2 3 4 6 6 9 9 12 13 5 7 4 5 10 25 23 29 26 25 23 20 21 20 19 19 18 17 16 15 14 13 12 12 10 9 9 9 9 9 8 10 10 10 11 11 10
4 4 3 2 10 6 9 9 11 11 10 4 7 8 7 5 20 14 28 27 25 24 22 20 21 20 20 20 18 17 15 15 13 13 12 11 10 9 8 7 7 7 8 8 8 9 8 9 9
4 3 3 6 9 7 5 7 6 6 6 7 3 7 8 4 11 26 27 26 25 24 22 20 22 21 19 18 17 15 13 13 12 11 9 9 8 7 6 5 6 6 5 6 6 6 7 8 8
4 3 3 8 8 6 6 6 3 6 7 9 10 10 5 12 21 28 26 24 24 23 23 21 20 20 19 18 16 15 13 11 10 9 7 6 5 5 4 3 3 3 4 5 5 6 7 7 7
5 3 7 5 8 5 4 6 2 6 7 7 7 7 8 17 25 25 24 22 22 22 22 21 20 18 17 17 15 13 11 10 9 8 6 4 4 4 4 4 3 3 4 5 5 6 7 7 8
2 2 6 4 4 7 6 5 7 6 8 10 2 6 13 21 26 24 22 22 21 21 21 21 20 18 16 15 13 12 10 9 7 5 4 4 3 3 4 3 5 4 5 6 7 7 7 8 9
1 1 7 8 6 7 8 9 6 5 12 6 4 9 24 26 26 24 22 21 21 20 20 20 20 19 17 14 12 11 10 9 7 5 3 5 6 3 4 6 6 6 6 7 8 8 8 9 9
3 3 8 6 6 7 8 6 9 6 10 9 12 15 27 28 26 24 22 23 24 22 21 20 19 18 17 14 11 12 10 9 10 6 5 10 9 7 7 6 8 7 8 9 10 10 9 9 11
2 5 4 7 5 8 9 7 4 8 5 9 16 20 23 27 24 23 22 22 24 22 20 20 19 17 16 13 12 13 11 10 10 13 13 15 14 9 8 6 6 8 9 10 10 11 10 12 11
2 5 1 6 7 7 8 8 4 5 1 8 17 19 21 22 21 22 21 20 20 20 19 19 19 17 14 14 12 14 15 15 14 14 14 18 13 15 10 10 8 8 10 12 11 9 9 10 10
5 4 4 8 7 7 9 6 5 8 10 12 19 18 19 18 21 20 18 17 16 18 18 18 18 17 16 15 16 17 16 18 19 15 19 17 15 11 11 11 11 11 11 10 9 9 10 10 11
2 5 8 7 9 8 7 7 4 7 11 16 18 18 16 17 20 19 17 16 16 15 17 17 17 18 17 17 18 21 19 17 15 14 14 15 15 13 14 14 12 12 9 9 8 8 10 12 12
8 6 6 6 6 7 6 7 7 10 11 14 16 15 15 14 17 17 18 16 16 16 15 16 17 17 18 20 22 15 18 16 16 15 14 14 13 13 14 13 11 10 8 10 11 11 11 10 11
5 6 6 5 5 4 6 9 9 11 12 14 14 14 14 15 17 16 17 16 15 14 15 14 15 16 18 18 17 16 16 17 14 14 14 13 13 12 12 12 11 10 10 12 11 11 10 9 9
6 4 1 2 7 4 7 5 11 11 12 13 13 15 14 14 15 17 17 16 15 15 14 15 16 16 17 16 15 14 14 13 15 13 12 12 12 11 10 10 10 9 9 8 9 13 11 10 8
2 5 3 6 7 9 7 6 11 13 12 12 14 14 14 15 17 18 17 17 16 15 15 16 15 15 15 13 12 13 12 12 11 11 12 12 11 11 10 10 10 9 10 9 11 11 11 11 9
5 5 7 2 4 9 10 8 9 14 13 13 13 15 15 15 17 16 17 17 16 16 17 17 17 15 15 15 15 14 15 12 12 12 13 14 13 12 11 12 12 10 10 10 10 10 11 13 10
5 6 1 4 2 9 9 8 9 16 18 16 16 15 15 16 14 15 16 17 18 17 19 18 19 17 18 15 14 13 9 11 12 11 12 14 14 13 13 13 13 11 10 10 11 12 13 12 12
9 7 5 8 2 7 7 13 8 13 15 16 17 17 16 16 15 15 17 18 18 18 20 20 20 19 18 16 14 12 11 10 11 9 10 12 14 13 13 12 11 12 13 13 10 10 14 11 8
11 2 1 4 9 1 5 2 8 6 12 16 17 17 17 16 15 14 17 18 19 17 16 17 18 18 18 17 16 16 13 12 9 7 7 8 10 11 12 11 13 13 14 16 21 12 13 11 11
8 6 7 8 10 9 10 6 7 6 4 7 15 18 18 18 17 17 17 18 17 15 15 15 16 18 18 18 17 15 14 13 10 9 6 6 7 8 9 9 8 7 9 11 11 12 11 11 9
1 7 8 7 9 10 7 6 3 7 9 3 2 12 17 18 16 16 18 17 18 17 16 16 18 19 18 18 16 17 15 13 11 10 10 9 6 4 7 7 8 6 7 7 9 9 11 9 9
8 12 10 9 8 3 5 6 5 9 7 5 1 3 7 16 15 14 13 15 15 15 13 12 15 16 16 17 16 17 16 14 14 12 11 9 5 4 5 8 9 8 7 7 6 9 9 9 10
15 16 7 5 7 4 2 4 5 9 7 5 5 5 4 8 9 11 10 10 10 10 11 11 12 12 12 12 14 15 14 14 14 14 13 10 8 4 6 6 6 8 8 7 6 6 10 9 9
8 12 14 12 9 9 5 4 11 11 10 8 8 8 8 7 7 6 6 7 6 7 8 10 12 13 15 15 16 15 15 14 13 14 13 12 9 6 5 3 4 5 5 5 4 4 5 6 7
10 4 9 9 9 17 6 5 7 12 8 8 9 9 9 9 9 8 8 8 6 6 7 7 9 10 10 11 11 11 12 10 6 6 10 12 11 10 8 5 5 3 4 3 4 4 4 5 8
8 10 9 12 8 10 10 2 6 8 9 9 9 9 9 9 8 8 7 8 5 3 3 4 3 3 3 3 5 4 7 7 8 3 7 11 10 11 9 14 7 9 8 8 7 6 5 6 8
7 9 12 9 13 9 9 10 6 12 10 11 10 9 10 8 8 7 6 5 4 5 7 8 7 5 3 1 1 3 5 8 8 9 10 5 1 4 7 10 13 5 11 15 10 9 8 9 10
Wind_Direction
146 158 171 221 236 201 68 86 105 114 129 105 136 125 68 22 6 67 141 141 144 143 143 142 142 138 139 146 151 154 157 149 139 137 135 132 130 126 114 106 109 114 111 117 112 109 111 119 118
172 167 213 281 308 78 82 102 115 95 105 134 117 131 116 79 64 131 136 145 147 145 146 147 149 146 143 142 148 151 148 147 141 137 135 131 125 127 124 118 117 116 121 115 117 119 119 120 125
171 231 282 341 90 69 106 101 106 100 132 149 108 44 41 60 118 137 141 148 147 149 149 153 153 152 149 149 150 150 145 141 141 138 134 129 130 132 127 127 119 122 123 126 122 127 128 129 134
200 202 207 23 80 66 96 111 114 121 144 137 102 88 91 104 137 135 146 152 148 153 150 157 150 152 149 147 144 144 145 147 143 142 143 139 137 135 132 127 122 133 134 132 134 134 134 137 144
219 232 106 84 81 106 114 115 110 119 134 143 171 97 101 160 135 142 148 156 155 156 149 155 160 157 153 149 147 147 147 149 149 151 148 143 142 141 141 144 149 147 144 152 148 146 142 142 156
215 260 110 88 93 96 131 138 118 96 122 120 110 111 77 145 151 150 152 157 159 157 154 157 160 162 158 155 157 157 159 156 155 156 155 155 158 154 148 173 184 184 180 173 169 166 173 174 169
338 57 60 77 93 120 118 147 145 121 124 110 134 91 108 148 150 152 155 158 162 160 160 161 166 166 164 167 164 165 167 165 163 162 165 156 190 192 189 210 228 231 229 225 212 197 185 187 198
353 310 90 47 57 91 125 122 111 127 82 111 90 140 151 151 155 153 155 161 166 167 167 169 171 176 177 180 176 176 180 175 174 172 171 216 216 249 253 247 268 246 253 245 234 223 221 219 211
199 146 73 71 42 109 149 123 114 92 135 73 47 141 141 154 156 158 158 165 169 176 176 177 180 181 183 183 191 186 189 184 174 173 197 268 266 237 260 252 248 250 261 254 250 235 231 229 230
288 17 45 30 66 111 155 132 129 135 139 119 96 104 140 155 163 164 169 172 175 181 182 182 188 189 190 193 195 194 192 186 180 174 222 258 271 270 256 265 275 275 266 256 249 241 232 239 237
44 27 31 70 66 120 136 136 122 145 182 138 140 141 151 159 171 172 177 181 180 183 185 189 195 198 199 206 209 199 190 186 210 219 242 260 273 268 261 257 274 282 288 269 243 239 232 235 241
276 32 338 88 113 121 140 128 137 85 32 123 144 152 156 168 177 182 181 186 181 182 192 197 200 203 212 212 215 205 198 194 211 229 235 240 261 245 250 263 270 284 288 272 253 245 219 251 243
265 84 81 107 124 111 127 141 95 112 120 138 144 155 164 174 177 186 187 185 187 187 193 201 202 201 207 208 212 215 212 215 226 239 228 240 237 236 246 256 257 270 284 261 242 256 255 244 244
54 104 122 134 122 131 126 134 188 138 137 144 157 164 167 172 177 183 190 189 191 196 199 201 202 199 202 207 220 216 225 226 231 232 234 241 238 249 259 257 265 257 257 252 245 262 257 249 246
127 138 138 131 138 127 142 146 87 139 152 156 170 170 168 176 179 185 189 194 195 197 199 203 207 205 205 209 219 222 228 231 234 236 239 240 243 259 258 257 255 233 238 237 242 272 263 252 242
203 221 217 130 180 129 244 112 131 154 164 167 172 173 183 188 187 189 192 200 196 206 201 205 206 208 211 217 216 221 227 230 236 236 243 245 250 257 252 245 243 230 238 244 248 262 270 264 249
196 249 255 151 215 164 229 97 145 163 170 171 177 178 186 190 200 199 201 204 204 203 203 209 211 211 212 218 223 223 231 233 236 233 236 246 250 247 239 240 230 226 243 243 254 260 262 262 251
222 247 187 278 167 224 223 255 154 176 182 177 181 181 186 193 198 200 205 207 207 206 207 208 212 214 212 214 224 232 227 230 236 239 245 247 245 237 231 232 225 226 234 246 245 258 262 248 248
311 289 300 323 151 231 248 258 192 186 195 180 187 191 192 203 193 196 203 210 209 215 213 215 212 208 206 211 218 227 229 224 231 237 239 236 239 237 234 236 237 236 239 248 256 259 260 255 239
266 274 249 106 110 228 281 271 217 187 205 194 189 191 193 195 188 188 198 208 214 213 218 215 213 208 204 213 221 232 241 236 236 235 236 235 230 235 240 247 247 245 250 256 255 249 256 256 230
232 290 358 6 10 234 286 251 204 203 206 205 200 196 191 192 192 189 200 207 214 217 215 215 214 209 207 209 217 220 233 242 236 242 238 231 233 234 238 246 258 249 243 241 251 270 245 251 228
278 166 63 313 305 9 232 339 127 176 201 211 209 202 198 198 202 196 197 209 216 224 217 215 212 214 210 210 217 219 226 234 241 237 240 226 225 231 236 243 244 254 254 262 248 272 253 234 231
22 360 305 297 290 269 169 264 119 173 191 190 207 211 203 203 200 201 208 206 217 213 211 213 209 208 209 212 214 229 237 242 239 234 234 221 213 220 229 229 230 249 244 257 259 263 249 240 234
359 262 261 253 268 252 47 289 130 52 51 100 12 210 205 197 213 203 210 209 215 213 205 203 203 206 204 209 214 224 236 242 239 232 237 248 236 225 208 210 209 223 233 236 250 244 232 234 232
252 246 236 225 205 238 77 265 7 76 81 57 44 223 223 204 200 214 208 209 214 212 199 202 210 214 206 208 214 224 229 237 247 252 245 244 239 228 224 202 197 217 234 255 261 242 234 233 240
222 255 290 256 280 114 170 262 90 103 102 79 80 108 154 193 189 212 197 202 198 197 199 201 204 222 221 219 226 225 233 236 242 246 250 251 246 238 198 201 215 212 223 233 254 252 236 232 235
218 228 260 300 282 274 237 152 255 109 110 105 93 103 113 133 138 106 153 170 156 174 195 201 211 216 216 215 213 222 225 223 248 251 246 243 227 216 191 194 195 246 211 210 223 233 242 270 262
277 278 201 222 183 256 164 256 264 130 130 122 111 104 105 110 126 128 122 128 134 149 157 191 214 228 223 216 224 217 213 226 211 245 237 208 201 185 195 156 78 109 262 228 233 217 204 260 281
183 220 237 275 260 291 278 251 82 114 144 132 118 113 115 121 122 124 129 133 144 142 140 139 127 107 125 170 173 189 213 182 177 235 259 231 212 210 212 183 298 351 320 269 249 259 268 261 277
272 263 214 226 223 239 302 296 98 122 137 134 126 122 120 121 125 125 122 119 120 87 72 62 71 73 63 164 169 188 246 288 294 252 272 260 105 99 204 250 315 6 265 265 251 255 274 265 274